Location: Asheville, NC
(35.6000°N, 82.5500°W)
Time: 17:12:28
(UTC-04:00)

XW-2F - Pass Details

Date: 18 March 2018
Orbit: 505 x 527 km, 97.5° (Epoch: 18 June)

Event Time Altitude Azimuth Distance (km) Brightness Sun altitude
Rises 06:42:56 0° 31° (NNE) 2,661 ? -11.7°
Reaches altitude 10° 06:45:38 10° 52° (NE) 1,770 ? -11.2°
Maximum altitude 06:48:13 17° 94° (E) 1,364 ? -10.7°
Drops below altitude 10° 06:50:48 10° 137° (SE) 1,763 ? -10.1°
Sets 06:53:27 0° 158° (SSE) 2,647 ? -9.6°
